{"data":{"norad_id":52632,"intl_designator":"2022-052AL","name":"STARLINK-3995","alt_names":[],"object_type":"PAYLOAD","status":"ACTIVE","operator":null,"country":"US","launch_date":"2022-05-14","launch_site_code":"AFETR","launch_vehicle":null,"mission":null,"orbit_class":"UNKNOWN","rcs_meters":null,"size_class":null,"mass_kg":null,"dimensions":null,"purposes":["comms"],"wikipedia_slug":null,"has_3d_model":false,"image_url":null,"decayed_at":null,"tle_current":{"epoch":"2026-05-24T19:53:56.787072Z","epoch_age_seconds":83661,"freshness":"FRESH","line1":"1 52632U 22052AL  26144.82912948  .00000983  00000+0  79843-4 0  9993","line2":"2 52632  53.2142 287.3151 0001177  88.5540 271.5588 15.08829240222494","mean_motion":15.0882924,"eccentricity":0.0001177,"inclination_deg":53.2142,"raan_deg":287.3151,"arg_perigee_deg":88.554,"mean_anomaly_deg":271.5588,"bstar":7.9843e-5,"rev_number":22249,"period_min":95.438235277042,"perigee_km":538.96203978211,"apogee_km":540.59051656779,"semimajor_km":6917.913278175,"source":"CELESTRAK","updated_at":"2026-05-25T13:38:17.204208Z"}}}